Weather Roundup
Issued by NWS Corpus Christi, TX

Home | Current Version | Previous Version | Text Only | Print | Product List | Glossary On
Versions: 1 2 3 4 5 6 7 8 9 10 11 12 13 14 15 16 17 18 19 20 21 22 23 24 25 26 27 28 29 30 31 32 33 34 35 36 37 38 39 40 41 42 43 44 45 46 47 48 49 50
000
ASUS44 KCRP 300010
HRRCRP

SOUTH TEXAS REGIONAL WEATHER ROUNDUP
NATIONAL WEATHER SERVICE CORPUS CHRISTI TX
700 PM CDT SAT AUG 29 2015


TXZ229>244-300100-
...CORPUS CHRISTI AREA OBSERVATIONS...

CITY           SKY/WX    TMP DP  RH WIND       PRES   REMARKS
CORPUS CHRISTI PTSUNNY   86  65  49 E14       29.95S
NAS CORPUS CHR SUNNY     84  64  50 E13       29.95S
ROCKPORT       SUNNY     86  65  49 SE13      29.95S
KINGSVILLE NAS SUNNY     88  67  49 E12       29.94S HX  91
ALICE          SUNNY     89  62  40 E14       29.93S
FALFURRIAS     SUNNY     89  60  38 NE12      29.93R
$$

...VICTORIA AREA OBSERVATIONS...

CITY           SKY/WX    TMP DP  RH WIND       PRES   REMARKS
VICTORIA       MOSUNNY   87  64  46 MISG      29.96S
BEEVILLE       FAIR      90  67  46 E7        29.94S HX  93
PLEASANTON     SUNNY     94  55  26 E8        29.94S HX  92
SAN ANTONIO    MOSUNNY   92  59  33 SE12      29.96S HX  91
$$

...LAREDO AREA OBSERVATIONS...

CITY           SKY/WX    TMP DP  RH WIND       PRES   REMARKS
LAREDO         PTSUNNY   98  51  20 SE10      29.92S HX  95
COTULLA        SUNNY     95  54  25 E12       29.92F HX  93
DEL RIO        MOSUNNY   95  53  24 E8        29.92F HX  92
MCALLEN        SUNNY     94  68  42 E16       29.91S HX  98
HEBBRONVILLE   NOT AVBL
$$

...OTHER TEXAS OBSERVATIONS...

CITY           SKY/WX    TMP DP  RH WIND       PRES   REMARKS
BROWNSVILLE    MOSUNNY   85  71  63 E10G20    29.94R HX  90
HOUSTON        PTCLDY    84  64  50 SE9       29.97F
COL. STATION   SUNNY     88  65  46 S12       29.97S HX  90
AUSTIN         PTSUNNY   91  61  36 SE7       29.95S HX  91
WACO           PTSUNNY   92  62  36 S8        29.94S HX  92
FORT WORTH     PTSUNNY   92  61  35 S13       29.91S HX  92
WICHITA FALLS  CLOUDY    92  62  36 N9        29.92R HX  92
LUBBOCK        PTSUNNY   81  50  33 S13       30.12R
EL PASO        MOSUNNY   90  55  30 SE10G17   30.05S
$$

...MARINE OBSERVATIONS...

STATION/POSITION TIME  SKY/WX   TEMP    WIND        PRES    VSBY  WAVE   SWELL
                                AIR SEA DIR/SP/G                  HT/PER HT/PER
                 (UTC)          (F)     (DEG/KT/KT) (MB)    (MI)  (FT/S) (FT/S)
PORT ARANSAS     0000            83 88  100/ 10/ 12 1015.6F
BUOY 90 E PORT A 2350            83 85  100/ 12/ 16 1014.7F         1/ 3
BUOY 45 SE BAFFI 2350            84 85  130/  8/ 10 1014.1F         1/ 4
BUOY 200 E PT IS 2350            86 86   70/  6/  8 1015.0F         1/ 6   2/ 6
BUOY 15 E GALVES 2350            84 87  110/  6/  8 1015.0F         1
$$



USA.gov is the U.S. government's official web portal to all federal, state and local government web resources and services.